Location: Kumla
(59.1265°N, 15.1401°E)
Time: 08:11:54
(UTC+01:00)

Vanguard 1 Rocket - Pass Details

Date: 09 December 2023
Orbit: 653 x 4219 km, 34.3° (Epoch: 04 March)

Event Time Altitude Azimuth Distance (km) Brightness Sun altitude
Rises 03:23:15 0° 212° (SSW) 8,441 - -38.1°
Exits shadow 03:31:12 10° 201° (SSW) 7,241 11.6 -37.2°
Reaches altitude 10° 03:31:24 10° 201° (SSW) 7,209 11.6 -37.1°
Maximum altitude 03:46:33 22° 161° (SSE) 5,281 11.2 -35.3°
Drops below altitude 10° 03:57:38 10° 118° (ESE) 5,194 11.7 -33.9°
Sets 04:02:04 0° 104° (ESE) 5,673 12.3 -33.4°
